Location: El Portezuelo
(28.4984°N, 16.3589°W)
Time: 18:58:10
(UTC+00:00)

Cosmos 923 Rocket - Pass Details

Date: 20 January 2020
Orbit: 757 x 786 km, 74.0° (Epoch: 16 February)

Event Time Altitude Azimuth Distance (km) Brightness Sun altitude
Rises 06:45:00 0° 200° (SSW) 3,209 7.2 -16.1°
Reaches altitude 10° 06:47:21 10° 202° (SSW) 2,290 6.4 -15.6°
Maximum altitude 06:52:32 71° 286° (WNW) 811 3.9 -14.5°
Drops below altitude 10° 06:57:47 10° 10° (N) 2,320 6.4 -13.4°
Sets 07:00:12 0° 13° (NNE) 3,254 7.2 -12.9°
